When you browse on this site, cookies collect data to enhance your experience and personalize the content and advertising you see.
Visit our Privacy Policy to learn more. By continuing to use the site, you agree to this use of cookies and data.
  • In Italy
  • List of Countries
  • For 7 days
  • Water Temperature
  • Satellite Maps
  • Weather Map
  • Weather Widgets
  • user-avatar
    Login

    Hourly Weather Faro

    Today, 17 November, Saturday

    Time Temperature Precipitation Wind Pressure Humidity
    00:00 +14°C° 0 mm 5 mps 758 mmHg 88%
    01:00 +14°C° 0 mm 5 mps 758 mmHg 90%
    02:00 +14°C° 0 mm 5 mps 758 mmHg 92%
    03:00 +15°C° 0 mm 5 mps 758 mmHg 92%
    04:00 +15°C° 0 mm 5 mps 757 mmHg 93%
    05:00 +15°C° 0 mm 5 mps 757 mmHg 94%
    06:00 +15°C° 0 mm 6 mps 757 mmHg 90%
    07:00 +16°C° 0 mm 7 mps 757 mmHg 85%
    08:00 +17°C° 0 mm 8 mps 757 mmHg 81%
    09:00 +18°C° 0 mm 8 mps 757 mmHg 77%
    10:00 +20°C° 0 mm 8 mps 757 mmHg 72%
    11:00 +20°C° 0 mm 8 mps 756 mmHg 67%
    12:00 +20°C° 0.1 mm 8 mps 756 mmHg 67%
    13:00 +20°C° 0.1 mm 8 mps 755 mmHg 68%
    14:00 +19°C° 0.1 mm 9 mps 755 mmHg 68%
    15:00 +18°C° 0.3 mm 9 mps 754 mmHg 71%
    16:00 +18°C° 0.3 mm 9 mps 754 mmHg 75%
    17:00 +17°C° 0.3 mm 9 mps 753 mmHg 78%
    18:00 +17°C° 1.1 mm 10 mps 753 mmHg 79%
    19:00 +17°C° 1.1 mm 10 mps 753 mmHg 79%
    20:00 +17°C° 1.1 mm 11 mps 752 mmHg 80%
    21:00 +16°C° 1.3 mm 11 mps 752 mmHg 81%
    22:00 +16°C° 1.3 mm 11 mps 751 mmHg 81%
    23:00 +16°C° 1.3 mm 11 mps 751 mmHg 82%

    Tomorrow, 18 November, Sunday

    Time Temperature Precipitation Wind Pressure Humidity
    00:00 +16°C° 1.5 mm 11 mps 751 mmHg 83%
    01:00 +16°C° 1.5 mm 10 mps 750 mmHg 84%
    02:00 +16°C° 1.5 mm 10 mps 750 mmHg 85%
    03:00 +16°C° 0.7 mm 8 mps 750 mmHg 86%
    04:00 +15°C° 0.7 mm 6 mps 750 mmHg 88%
    05:00 +14°C° 0.7 mm 5 mps 750 mmHg 90%
    06:00 +15°C° 0.8 mm 4 mps 750 mmHg 87%
    07:00 +16°C° 0.8 mm 3 mps 750 mmHg 85%
    08:00 +16°C° 0.8 mm 2 mps 750 mmHg 82%
    09:00 +17°C° 0.3 mm 2 mps 750 mmHg 77%
    10:00 +17°C° 0.3 mm 2 mps 750 mmHg 73%
    11:00 +18°C° 0.3 mm 2 mps 750 mmHg 68%
    12:00 +18°C° 0.4 mm 2 mps 750 mmHg 70%
    13:00 +17°C° 0.4 mm 3 mps 749 mmHg 72%
    14:00 +17°C° 0.4 mm 3 mps 749 mmHg 73%
    15:00 +15°C° 0.1 mm 4 mps 749 mmHg 78%
    16:00 +15°C° 0.1 mm 4 mps 749 mmHg 83%
    17:00 +14°C° 0.1 mm 4 mps 749 mmHg 87%
    18:00 +14°C° 0 mm 4 mps 750 mmHg 89%
    19:00 +13°C° 0 mm 4 mps 750 mmHg 90%
    20:00 +13°C° 0 mm 4 mps 750 mmHg 92%
    21:00 +13°C° 0 mm 4 mps 750 mmHg 93%
    22:00 +12°C° 0 mm 4 mps 750 mmHg 93%
    23:00 +12°C° 0 mm 3 mps 750 mmHg 94%

    Day after tomorrow, 19 November, Monday

    Time Temperature Precipitation Wind Pressure Humidity
    00:00 +12°C° 0 mm 3 mps 750 mmHg 94%
    01:00 +12°C° 0 mm 3 mps 750 mmHg 94%
    02:00 +12°C° 0 mm 3 mps 750 mmHg 94%
    03:00 +12°C° 0.1 mm 3 mps 750 mmHg 94%
    04:00 +11°C° 0.1 mm 3 mps 750 mmHg 94%
    05:00 +12°C° 0.1 mm 2 mps 751 mmHg 94%
    06:00 +13°C° 0 mm 2 mps 751 mmHg 91%
    07:00 +14°C° 0 mm 2 mps 752 mmHg 88%
    08:00 +14°C° 0 mm 1 mps 752 mmHg 85%
    09:00 +16°C° 0 mm 2 mps 752 mmHg 77%
    10:00 +17°C° 0 mm 2 mps 752 mmHg 70%
    11:00 +18°C° 0 mm 2 mps 752 mmHg 63%
    12:00 +19°C° 0 mm 3 mps 752 mmHg 62%
    13:00 +19°C° 0 mm 4 mps 752 mmHg 62%
    14:00 +19°C° 0 mm 4 mps 752 mmHg 61%
    15:00 +18°C° 0.1 mm 4 mps 752 mmHg 69%
    16:00 +15°C° 0.1 mm 4 mps 753 mmHg 76%
    17:00 +14°C° 0.1 mm 4 mps 753 mmHg 83%
    18:00 +13°C° 0 mm 4 mps 753 mmHg 85%
    19:00 +13°C° 0 mm 3 mps 754 mmHg 88%
    20:00 +12°C° 0 mm 3 mps 754 mmHg 90%
    21:00 +12°C° 0 mm 3 mps 755 mmHg 92%
    22:00 +12°C° 0 mm 3 mps 755 mmHg 93%
    23:00 +11°C° 0 mm 3 mps 755 mmHg 94%

    20 November, Tuesday

    Time Temperature Precipitation Wind Pressure Humidity
    00:00 +11°C° 0 mm 3 mps 755 mmHg 94%
    01:00 +11°C° 0 mm 3 mps 755 mmHg 95%
    02:00 +11°C° 0 mm 3 mps 755 mmHg 95%
    03:00 +11°C° 0 mm 3 mps 755 mmHg 95%
    04:00 +11°C° 0 mm 3 mps 755 mmHg 95%
    05:00 +11°C° 0 mm 3 mps 755 mmHg 95%
    06:00 +11°C° 0 mm 3 mps 756 mmHg 92%
    07:00 +12°C° 0 mm 3 mps 756 mmHg 88%
    08:00 +13°C° 0 mm 3 mps 757 mmHg 85%
    09:00 +16°C° 0 mm 3 mps 757 mmHg 78%
    10:00 +17°C° 0 mm 4 mps 757 mmHg 71%
    11:00 +19°C° 0 mm 4 mps 757 mmHg 65%
    12:00 +19°C° 0 mm 5 mps 757 mmHg 63%
    13:00 +19°C° 0 mm 6 mps 756 mmHg 61%
    14:00 +19°C° 0 mm 6 mps 756 mmHg 59%
    15:00 +16°C° 0 mm 6 mps 756 mmHg 65%
    16:00 +15°C° 0 mm 6 mps 756 mmHg 72%
    17:00 +13°C° 0 mm 6 mps 757 mmHg 78%
    18:00 +13°C° 0 mm 6 mps 757 mmHg 82%
    19:00 +13°C° 0 mm 6 mps 757 mmHg 85%
    20:00 +11°C° 0 mm 6 mps 758 mmHg 88%
    21:00 +11°C° 0 mm 6 mps 758 mmHg 90%
    22:00 +11°C° 0 mm 6 mps 758 mmHg 91%
    23:00 +11°C° 0 mm 6 mps 758 mmHg 92%

    21 November, Wednesday

    Time Temperature Precipitation Wind Pressure Humidity
    00:00 +11°C° 0 mm 6 mps 758 mmHg 92%
    01:00 +11°C° 0 mm 6 mps 757 mmHg 92%
    02:00 +11°C° 0 mm 6 mps 757 mmHg 92%
    03:00 +11°C° 0 mm 6 mps 757 mmHg 93%
    04:00 +11°C° 0 mm 6 mps 757 mmHg 93%
    05:00 +11°C° 0 mm 6 mps 757 mmHg 93%
    06:00 +11°C° 0.1 mm 6 mps 758 mmHg 90%
    07:00 +13°C° 0.1 mm 6 mps 758 mmHg 88%
    08:00 +13°C° 0.1 mm 6 mps 758 mmHg 85%
    09:00 +14°C° 0 mm 5 mps 759 mmHg 78%
    10:00 +15°C° 0 mm 5 mps 759 mmHg 71%
    11:00 +15°C° 0 mm 5 mps 759 mmHg 64%
    12:00 +15°C° 0 mm 5 mps 758 mmHg 62%
    13:00 +16°C° 0 mm 5 mps 758 mmHg 61%
    14:00 +16°C° 0 mm 5 mps 758 mmHg 59%
    15:00 +14°C° 0 mm 5 mps 758 mmHg 64%
    16:00 +13°C° 0 mm 5 mps 758 mmHg 69%
    17:00 +12°C° 0 mm 4 mps 759 mmHg 73%
    18:00 +11°C° 0 mm 4 mps 759 mmHg 76%
    19:00 +11°C° 0 mm 3 mps 759 mmHg 78%
    20:00 +10°C° 0 mm 3 mps 760 mmHg 80%
    21:00 +10°C° 0 mm 3 mps 759 mmHg 81%
    22:00 +9°C° 0 mm 3 mps 759 mmHg 81%
    23:00 +9°C° 0 mm 3 mps 759 mmHg 81%

    22 November, Thursday

    Time Temperature Precipitation Wind Pressure Humidity
    00:00 +8°C° 0 mm 2 mps 759 mmHg 81%
    01:00 +8°C° 0 mm 2 mps 759 mmHg 80%
    02:00 +8°C° 0 mm 2 mps 759 mmHg 79%
    03:00 +7°C° 0 mm 2 mps 759 mmHg 78%
    04:00 +7°C° 0 mm 2 mps 759 mmHg 77%
    05:00 +7°C° 0 mm 2 mps 760 mmHg 76%
    06:00 +8°C° 0 mm 2 mps 760 mmHg 71%
    07:00 +9°C° 0 mm 2 mps 760 mmHg 66%
    08:00 +10°C° 0 mm 2 mps 761 mmHg 60%
    09:00 +12°C° 0 mm 2 mps 761 mmHg 53%
    10:00 +14°C° 0 mm 2 mps 761 mmHg 45%
    11:00 +16°C° 0 mm 2 mps 761 mmHg 38%
    12:00 +16°C° 0 mm 2 mps 760 mmHg 37%
    13:00 +17°C° 0 mm 2 mps 760 mmHg 36%
    14:00 +18°C° 0 mm 1 mps 759 mmHg 36%
    15:00 +16°C° 0 mm 1 mps 760 mmHg 41%
    16:00 +14°C° 0 mm 1 mps 760 mmHg 47%
    17:00 +13°C° 0 mm 1 mps 760 mmHg 53%
    18:00 +12°C° 0 mm 1 mps 760 mmHg 54%
    19:00 +12°C° 0 mm 1 mps 760 mmHg 54%
    20:00 +12°C° 0 mm 2 mps 761 mmHg 55%
    21:00 +12°C° 0 mm 2 mps 761 mmHg 55%
    22:00 +12°C° 0 mm 2 mps 761 mmHg 55%
    23:00 +12°C° 0 mm 2 mps 761 mmHg 54%
    Show more